Location: Wildlife_Club
(35.6000°N, 81.4330°W)
Time: 22:29:40
(UTC-04:00)

Courier 1B - All Passes

Search period start: 15 June 2019 00:00
Search period end: 25 June 2019 00:00
Orbit: 963 x 1209 km, 28.3° (Epoch: 14 June)

Date Brightness Start Highest point End Pass type
(mag) Time Alt. Az. Time Alt. Az. Time Alt. Az.
15 Jun - 01:04:52 10° WSW 01:12:23 50° S 01:19:47 10° ESE visible
15 Jun - 02:59:20 10° W 03:06:13 35° SSW 03:12:53 10° SE visible
15 Jun - 04:55:45 10° WSW 04:59:35 15° SSW 05:03:21 10° S visible
15 Jun - 20:26:04 10° SSW 20:31:03 19° SSE 20:36:11 10° ESE daylight
15 Jun - 22:17:33 10° SW 22:24:35 39° SSE 22:31:45 10° E visible
16 Jun - 00:10:59 10° WSW 00:18:29 51° S 00:26:00 10° ESE visible
16 Jun - 02:05:13 10° W 02:12:25 40° SSW 02:19:27 10° SE visible
16 Jun - 04:00:42 10° WSW 04:05:57 20° SSW 04:11:03 10° SSE visible
16 Jun - 19:33:52 10° S 19:37:25 14° SSE 19:41:03 10° ESE daylight
16 Jun - 21:24:08 10° SW 21:30:46 34° SSE 21:37:38 10° E visible
16 Jun - 23:17:12 10° WSW 23:24:36 50° S 23:32:07 10° ESE visible
17 Jun - 01:11:12 10° W 01:18:34 45° S 01:25:52 10° ESE visible
17 Jun - 03:06:08 10° WSW 03:12:15 25° SSW 03:18:13 10° SSE night (unlit)
17 Jun - 20:30:55 10° SSW 20:37:02 28° SSE 20:43:23 10° ESE daylight
17 Jun - 22:23:29 10° WSW 22:30:43 47° S 22:38:10 10° E visible
18 Jun - 00:17:17 10° WSW 00:24:42 48° S 00:32:10 10° ESE visible
18 Jun - 02:11:50 10° WSW 02:18:30 31° SSW 02:25:04 10° SE visible
18 Jun - 04:09:26 10° SW 04:11:51 12° SSW 04:14:16 10° SSW night (unlit)
18 Jun - 19:37:58 10° SSW 19:43:21 22° SSE 19:48:57 10° ESE daylight
18 Jun - 21:29:55 10° SW 21:36:54 43° SSE 21:44:09 10° E visible
18 Jun - 23:23:26 10° WSW 23:30:49 50° S 23:38:21 10° ESE visible
19 Jun - 01:17:42 10° W 01:24:42 36° SSW 01:31:41 10° SE visible
19 Jun - 03:13:41 10° WSW 03:18:12 16° SSW 03:22:39 10° S night (unlit)
19 Jun - 18:45:24 10° S 18:49:43 17° SSE 18:54:12 10° ESE daylight
19 Jun - 20:36:28 10° SW 20:43:06 37° SSE 20:50:04 10° E daylight
19 Jun - 22:29:40 10° WSW 22:36:56 50° S 22:44:27 10° ESE visible
20 Jun - 00:23:42 10° W 00:30:53 41° SSW 00:38:07 10° SE visible
20 Jun - 02:18:54 10° WSW 02:24:30 21° SSW 02:30:04 10° SSE night (unlit)
20 Jun - 17:53:42 10° S 17:56:09 12° SSE 17:58:39 10° SE daylight
20 Jun - 19:43:11 10° SW 19:49:22 31° SSE 19:55:52 10° E daylight
20 Jun - 21:35:59 10° WSW 21:43:05 48° S 21:50:30 10° ESE visible
20 Jun - 23:29:48 10° W 23:37:01 45° S 23:44:25 10° ESE visible
21 Jun - 01:24:29 10° WSW 01:30:45 27° SSW 01:37:02 10° SSE visible
21 Jun - 18:50:06 10° SSW 18:55:42 26° SSE 19:01:35 10° ESE daylight
21 Jun - 20:42:25 10° WSW 20:49:15 45° S 20:56:29 10° E daylight
21 Jun - 22:35:59 10° WSW 22:43:10 48° S 22:50:36 10° ESE visible
22 Jun - 00:30:19 10° WSW 00:36:59 32° SSW 00:43:43 10° SE visible
22 Jun - 02:27:11 10° SW 02:30:26 13° SSW 02:33:42 10° S night (unlit)
22 Jun - 17:57:19 10° SSW 18:02:07 20° SSE 18:07:05 10° ESE daylight
22 Jun - 19:48:56 10° SW 19:55:30 40° SSE 20:02:25 10° E daylight
22 Jun - 21:42:15 10° WSW 21:49:18 49° S 21:56:43 10° ESE visible
22 Jun - 23:36:19 10° W 23:43:10 37° SSW 23:50:13 10° SE visible
23 Jun - 01:31:56 10° WSW 01:36:45 18° SSW 01:41:35 10° S visible
23 Jun - 17:05:01 10° S 17:08:33 15° SSE 17:12:11 10° ESE daylight
23 Jun - 18:55:37 10° SW 19:01:47 35° SSE 19:08:19 10° E daylight
23 Jun - 20:48:36 10° WSW 20:55:29 49° S 21:02:46 10° ESE daylight
23 Jun - 22:42:26 10° W 22:49:21 41° SSW 22:56:34 10° SE visible
24 Jun - 00:37:21 10° WSW 00:43:01 22° SSW 00:48:46 10° SSE visible
24 Jun - 18:02:27 10° SW 18:08:09 29° SSE 18:14:08 10° ESE daylight
24 Jun - 19:55:01 10° WSW 20:01:42 47° S 20:08:47 10° ESE daylight
24 Jun - 21:48:39 10° WSW 21:55:32 45° S 22:02:47 10° ESE visible
24 Jun - 23:43:06 10° WSW 23:49:16 27° SSW 23:55:35 10° SSE visible
